This is the latest recevied weather packets stored in our database for station/object DK4MDA-13. If no packets are shown the sender has not sent any weather packets the latest 10 day(s).
| Time | Temp. | Humidity | Pressure | Rain* | Wind** | Luminosity | Snow |
|---|---|---|---|---|---|---|---|
| 1777818133 | 27.22° C | 29% | 1010.9 hPa | 0 mm | - | - | - |
| 1777817833 | 27.22° C | 30% | 1011.1 hPa | 0 mm | - | - | - |
| 1777817533 | 27.22° C | 30% | 1011 hPa | 0 mm | - | - | - |
| 1777817233 | 27.22° C | 29% | 1011 hPa | 0 mm | - | - | - |
| 1777816933 | 27.22° C | 33% | 1011 hPa | 0 mm | - | - | - |
| 1777816633 | 27.78° C | 30% | 1011 hPa | 0 mm | - | - | - |
| 1777816333 | 27.78° C | 30% | 1011.1 hPa | 0 mm | - | - | - |
| 1777816033 | 27.22° C | 30% | 1011.1 hPa | 0 mm | - | - | - |
| 1777815733 | 26.67° C | 31% | 1011.1 hPa | 0 mm | - | - | - |
| 1777815433 | 27.22° C | 31% | 1011.4 hPa | 0 mm | - | - | - |
| 1777815133 | 26.67° C | 33% | 1011.4 hPa | 0 mm | - | - | - |
| 1777814533 | 26.11° C | 31% | 1011.5 hPa | 0 mm | - | - | - |
| 1777813933 | 26.11° C | 32% | 1011.6 hPa | 0 mm | - | - | - |
| 1777813633 | 26.11° C | 31% | 1011.7 hPa | 0 mm | - | - | - |
| 1777813333 | 26.11° C | 31% | 1011.8 hPa | 0 mm | - | - | - |
| 1777813033 | 26.11° C | 31% | 1011.9 hPa | 0 mm | - | - | - |
| 1777812733 | 26.11° C | 30% | 1011.9 hPa | 0 mm | - | - | - |
| 1777812433 | 26.11° C | 30% | 1011.8 hPa | 0 mm | - | - | - |
| 1777812133 | 26.67° C | 29% | 1011.9 hPa | 0 mm | - | - | - |
| 1777811833 | 27.22° C | 30% | 1011.9 hPa | 0 mm | - | - | - |
| 1777811533 | 26.67° C | 33% | 1012 hPa | 0 mm | - | - | - |
| 1777811233 | 26.67° C | 30% | 1012 hPa | 0 mm | - | - | - |
| 1777810933 | 26.67° C | 30% | 1012 hPa | 0 mm | - | - | - |
| 1777810633 | 26.67° C | 30% | 1011.9 hPa | 0 mm | - | - | - |
| 1777810033 | 26.67° C | 33% | 1011.8 hPa | 0 mm | - | - | - |
* Rain latest hour (hover to see other rain measurements)
** Current wind speed in m/s (hover to see current wind gust speed)